Weather History for Sidney, NE

Change the Weather History Date:

Friday, April 5, 2013

  Actual Average Record
Temperature  
Mean Temperature 62 °F 44 °F  
Max Temperature 79 °F 58 °F 79 °F (2013)
Min Temperature 45 °F 30 °F 10 °F (1950)
Degree Days  
Heating Degree Days 3 21  
Month to date heating degree days 97 108  
Since 1 July heating degree days 5704 5493  
Cooling Degree Days 0 0  
Month to date cooling degree days 0 0  
Year to date cooling degree days 0 0  
Growing Degree Days 10 (Base 50)    
Moisture  
Dew Point 29 °F    
Average Humidity 35    
Maximum Humidity 58    
Minimum Humidity 12    
Precipitation  
Precipitation 0.04 in 0.04 in 0.60 in (1951)
Month to date precipitation 0.04 0.23  
Year to date precipitation 0.99 1.85  
Sea Level Pressure  
Sea Level Pressure 29.73 in    
Wind  
Wind Speed 13 mph (West)    
Max Wind Speed 36 mph    
Max Gust Speed 46 mph    
Visibility 10 miles    
Events Rain    
T = Trace of Precipitation, MM = Missing Value Source: NWS Daily Summary

Daily Weather History Graph

Daily Weather History Graph

Search for Another Location

Airport:

Trip Planner

Search our weather history database for the weather conditions in past years. The results will help you decide how hot, cold, wet, or windy it might be!

Date:

Astronomy

Apr. 05, 2013 Rise Set
Actual Time 6:28 AM MDT 7:21 PM MDT
Civil Twilight 6:00 AM MDT 7:49 PM MDT
Nautical Twilight 5:27 AM MDT 8:22 PM MDT
Astronomical Twilight 4:52 AM MDT 8:57 PM MDT
Moon 3:39 AM MDT (4/5) 2:45 PM MDT (4/5)
Length of Visible Light 13h 49m
Length of Day
12h 53m
Waning Crescent, 23% of the Moon is Illuminated
Apr 5
Waning Crescent
Apr 10
New
Apr 18
First Quarter
Apr 25
Full
May 2
Last Quarter

Hourly Weather History & Observations

Time (MDT) Temp. Windchill Dew Point Humidity Pressure Visibility Wind Dir Wind Speed Gust Speed Precip Events Conditions
12:53 AM 46.9 °F - 30.9 °F 54% 29.91 in 10.0 mi South 11.5 mph - N/A   Clear
1:53 AM 46.0 °F 41.0 °F 32.0 °F 58% 29.89 in 10.0 mi SSW 10.4 mph - N/A   Clear
2:53 AM 48.9 °F - 33.1 °F 54% 29.86 in 10.0 mi SSW 10.4 mph - N/A   Clear
3:53 AM 50.0 °F - 30.9 °F 48% 29.83 in 10.0 mi SW 16.1 mph - N/A   Clear
4:53 AM 48.0 °F - 30.0 °F 50% 29.82 in 10.0 mi SW 13.8 mph - N/A   Clear
5:53 AM 48.0 °F - 28.9 °F 48% 29.81 in 10.0 mi SSW 12.7 mph - N/A   Clear
6:53 AM 48.0 °F - 28.9 °F 48% 29.81 in 10.0 mi SW 15.0 mph - N/A   Clear
7:53 AM 48.9 °F - 30.9 °F 50% 29.83 in 10.0 mi West 5.8 mph - N/A   Clear
8:53 AM 51.1 °F - 32.0 °F 48% 29.82 in 10.0 mi WSW 4.6 mph - N/A   Clear
9:53 AM 57.9 °F - 30.0 °F 35% 29.79 in 10.0 mi WNW 11.5 mph - N/A   Clear
10:53 AM 63.0 °F - 28.9 °F 28% 29.77 in 10.0 mi NW 12.7 mph - N/A   Clear
11:53 AM 73.0 °F - 26.1 °F 17% 29.71 in 10.0 mi Variable 4.6 mph - N/A   Clear
12:53 PM 75.9 °F - 19.9 °F 12% 29.66 in 10.0 mi West 19.6 mph 24.2 mph N/A   Clear
1:53 PM 73.9 °F - 23.0 °F 15% 29.64 in 10.0 mi West 15.0 mph 27.6 mph N/A   Mostly Cloudy
2:53 PM 75.0 °F - 24.1 °F 15% 29.62 in 10.0 mi West 18.4 mph 25.3 mph N/A   Scattered Clouds
3:53 PM 71.1 °F - 23.0 °F 16% 29.61 in 10.0 mi WNW 12.7 mph 19.6 mph N/A   Mostly Cloudy
4:53 PM 72.0 °F - 23.0 °F 16% 29.59 in 10.0 mi WSW 13.8 mph 23.0 mph N/A   Clear
5:53 PM 71.1 °F - 21.9 °F 16% 29.57 in 10.0 mi West 6.9 mph - N/A   Clear
6:53 PM 64.9 °F - 24.1 °F 21% 29.59 in 8.0 mi West 4.6 mph - N/A   Partly Cloudy
7:53 PM 64.0 °F - 30.0 °F 28% 29.65 in 10.0 mi WNW 16.1 mph 34.5 mph N/A   Overcast
8:53 PM 61.0 °F - 32.0 °F 34% 29.66 in 10.0 mi NW 12.7 mph - N/A   Overcast
9:53 PM 57.0 °F - 37.9 °F 49% 29.69 in 9.0 mi WNW 24.2 mph 36.8 mph 0.00 in Rain Light Rain
10:53 PM 55.0 °F - 37.9 °F 53% 29.71 in 10.0 mi NW 15.0 mph 28.8 mph 0.04 in Rain Light Rain
11:53 PM 51.1 °F - 37.9 °F 61% 29.69 in 10.0 mi WNW 11.5 mph - 0.00 in   Clear